Aeroporto :
LOGIN :

Iscrizione | Disclaimer

   EN    FR    IT 

 










Sommario :    VFR   VFR Marginale   IFR   IFR Intensivo   IFR Molto Intensivo
Visibilità : 
Base nubi : 
>= 8 km
>= 3000ft
5 / 8 km
1000 / 3000 ft
1500m / 5 km
500 / 1000 ft
800 / 1500m
200 / 500 ft
< 800m
< 200 ft
Simboli :   Temporali  Nebbia  Neve Forte  Precipitazioni Forti  Vento > 20 kt
SIGMETs :   Varie  Temporali  Ghiacco  Turbolenza  Onda orograficha  Ceneri Vulcaniche







- Altitudine del aeroporto : 284 ft


EGUW - RAF Wattisham

ULTIMO METAR :
  • 101650Z 32006KT CAVOK 04/01 Q1027 BLU NOSIG

METARs OBSOLETI :
  • 101550Z 33006KT 9999 FEW020 BKN130 06/03 Q1026 BLU NOSIG
  • 101450Z 35007KT 9999 BKN018 BKN040 07/05 Q1026 WHT TEMPO FEW018 BLU

TAF TAF EGUW
Valido dal 10 a 15 ore il 11 a 00 ore UTC


101332Z 1015/1024 32008KT 9999 SCT045
PROB30
TEMPO 1015/1017 SCT015
BECMG 1021/1023 7000 BR
BECMG 1023/1024 2000
Nessun NOTAM noto per questo aeroporto.



MetMap, La meteo Aeronautica in un colpo d'occhio ! - Copyright ORBIFLY Dicembre 2007 - Disclaimer

ORBIFLY MET'MAP TEAM :

Programmazione e sviluppo : Alexandra Zaïnal
Concezione e sviluppo : Baudouin d'Aumeries
Co-Programmazione e sviluppo : Marc-Olivier Méhu
Supporto tecnico e logistico : Manuel Goepfert
Aiuto per la traduzione : Arnaldo La Scala

Contatto : metmap@orbifly.com




FONTI E CREDITI :

   NOAA